Temperature
16 16 17 17 17 17 17 17 17 17 17 17 17 16 16 16 16 16 16 15 15 15 14 14 13 13 12 12 12 12 12 11 11 11 11 11 11 11 11 10 10 9 9
15 15 16 16 16 17 17 17 17 17 17 17 17 17 17 17 17 16 16 16 15 15 14 14 14 13 12 12 12 12 12 11 11 11 11 11 11 11 11 10 10 9 8
14 15 15 15 16 16 16 16 17 17 17 17 17 16 16 16 16 16 16 16 15 15 15 14 14 14 13 13 12 12 12 12 11 11 11 11 11 11 10 10 10 9 8
13 14 14 15 15 15 16 16 16 16 16 16 16 16 16 16 16 17 16 16 16 15 15 15 14 14 13 13 12 12 12 12 11 11 11 11 11 11 10 10 9 9 8
13 13 14 14 14 15 15 15 16 16 16 16 16 16 16 16 16 16 16 16 16 15 15 15 14 14 13 13 12 12 12 11 11 11 11 10 10 10 10 9 9 8 7
12 13 13 14 14 14 14 15 15 15 15 15 15 15 15 15 15 15 16 16 15 15 15 15 14 14 13 13 13 12 11 11 11 10 10 10 10 10 9 8 8 7 7
11 12 13 13 13 14 14 14 14 15 15 15 15 15 15 15 15 15 15 15 15 15 15 15 14 14 13 13 12 12 11 11 10 10 9 9 9 8 8 7 7 6 6
11 11 12 12 12 13 13 13 13 14 14 14 14 14 14 14 14 14 14 14 15 15 15 15 14 14 13 12 12 11 10 10 9 9 8 8 8 7 7 6 6 5 4
11 11 11 11 11 12 12 12 12 13 13 13 13 13 13 13 13 13 13 13 14 14 14 13 13 13 12 11 11 10 10 9 8 8 7 7 6 6 5 5 4 3 2
10 10 10 10 10 10 11 11 11 11 12 12 12 12 12 12 12 12 12 12 12 13 13 12 12 11 11 10 10 9 8 7 7 6 6 5 5 5 4 4 3 2 1
9 9 9 9 9 9 9 10 10 10 10 11 11 11 11 11 11 11 11 11 11 11 11 11 10 10 10 9 8 7 7 6 5 5 4 4 3 3 3 2 2 1 0
9 8 8 8 8 8 8 9 9 9 9 9 10 10 10 10 10 10 10 10 10 10 10 9 9 9 8 8 7 6 5 5 4 4 3 2 2 2 2 1 1 0 -0
8 8 8 8 7 7 7 8 8 8 8 8 8 9 9 9 9 9 9 9 9 9 8 8 8 7 7 6 5 4 4 3 3 3 2 2 1 1 1 0 -0 -1 -1
8 7 7 7 6 6 6 7 7 7 7 7 7 7 8 8 8 8 8 8 8 7 7 7 6 6 5 4 4 3 3 2 2 2 1 1 1 0 -0 -0 -1 -1 -2
7 6 6 6 6 6 6 6 6 6 6 6 6 6 6 6 6 6 6 6 6 6 5 5 4 4 3 3 3 2 2 2 1 1 1 0 0 -0 -1 -2 -2 -3 -3
6 6 5 5 5 5 5 5 5 5 5 5 5 5 5 5 5 5 5 4 4 4 4 3 3 2 2 2 2 2 1 1 1 0 0 -0 -1 -1 -2 -2 -3 -4 -5
6 5 5 5 5 4 4 4 4 4 4 4 4 4 4 4 4 4 3 3 3 2 2 2 2 1 1 1 1 1 1 0 0 -0 -1 -1 -2 -2 -3 -3 -4 -4 -5
5 5 4 4 4 4 3 3 3 3 3 3 3 3 3 3 3 2 2 2 1 1 1 1 1 1 0 0 0 0 -0 -0 -1 -1 -1 -2 -2 -3 -4 -4 -5 -5 -5
5 4 4 4 3 3 3 3 3 2 2 2 2 2 2 2 2 1 1 1 1 0 0 0 0 0 -0 -1 -1 -1 -1 -1 -2 -2 -3 -3 -3 -4 -5 -6 -6 -6 -6
4 4 3 3 3 2 2 2 2 2 2 1 1 1 1 1 1 1 1 0 0 -0 -0 -0 -0 -1 -1 -1 -1 -1 -2 -2 -2 -3 -3 -4 -4 -5 -6 -7 -7 -7 -7
4 3 3 2 2 2 2 1 1 1 1 1 0 0 0 0 0 0 0 0 0 -0 -0 -1 -1 -1 -2 -2 -2 -2 -3 -3 -3 -4 -4 -5 -5 -6 -7 -7 -7 -7 -8
3 2 2 2 1 1 1 1 1 1 0 0 0 0 0 0 -0 0 -0 -0 -0 -1 -1 -1 -1 -2 -2 -3 -3 -4 -4 -4 -4 -4 -5 -5 -6 -6 -7 -7 -7 -7 -7
3 2 2 1 1 1 1 1 1 0 0 0 0 0 -0 -0 -0 -0 -0 -1 -1 -1 -1 -2 -2 -3 -3 -3 -4 -4 -4 -5 -5 -5 -6 -6 -6 -6 -7 -7 -7 -7 -7
2 2 1 1 1 0 0 0 0 0 0 0 -0 -0 -0 -0 -0 -1 -1 -1 -1 -2 -2 -2 -3 -3 -3 -4 -4 -5 -5 -5 -5 -6 -6 -7 -7 -7 -7 -7 -7 -7 -7
2 2 1 1 1 1 0 0 0 0 0 0 0 -0 -0 -0 -1 -1 -1 -2 -2 -2 -3 -3 -3 -4 -4 -5 -5 -6 -6 -6 -6 -7 -7 -7 -7 -7 -7 -7 -7 -7 -7
2 2 1 1 1 1 1 0 0 0 0 0 0 -0 -0 -1 -1 -1 -2 -2 -2 -3 -3 -3 -4 -4 -5 -5 -6 -6 -6 -7 -7 -7 -7 -7 -7 -7 -7 -7 -7 -7 -7
Wind_Speed
9 8 8 8 7 8 9 11 13 13 11 10 12 12 13 12 11 11 15 18 18 19 16 9 9 10 10 10 9 5 5 3 3 4 2 2 1 2 1 3 4 4 5
7 6 6 6 7 8 9 10 12 12 12 13 13 9 9 9 11 9 10 16 17 18 16 13 12 11 9 10 10 7 5 3 4 4 3 2 1 1 1 2 3 3 5
7 6 5 5 4 6 7 8 10 11 12 12 8 5 4 3 5 8 11 12 16 18 17 15 13 13 13 13 12 10 9 6 3 2 4 4 6 3 1 1 1 3 2
5 5 4 4 4 5 5 6 7 9 10 10 10 12 12 13 13 12 12 12 14 15 16 15 14 14 12 12 12 10 7 7 5 2 1 1 3 4 3 1 1 2 3
4 5 5 5 4 4 3 4 5 6 7 8 11 13 14 13 9 7 9 10 10 12 13 14 13 14 12 12 12 10 8 6 6 5 4 2 2 2 3 3 2 1 2
6 5 5 5 5 4 3 3 3 5 5 7 9 12 14 13 10 9 11 10 8 8 11 12 12 12 11 12 11 11 11 7 7 6 4 4 4 3 3 3 2 2 2
7 8 9 9 9 8 7 6 5 6 6 6 9 11 13 13 14 14 13 12 9 9 13 13 12 11 10 10 10 10 9 8 9 7 4 3 3 3 3 3 2 1 2
7 8 8 8 8 9 9 8 8 8 7 7 9 10 11 10 10 12 11 13 11 11 11 11 10 10 10 10 10 8 8 7 8 8 6 5 4 3 3 4 4 1 2
8 8 8 8 8 9 9 8 9 10 9 9 8 8 9 10 10 9 9 7 6 6 9 10 10 10 11 11 11 9 9 9 8 8 7 5 4 3 3 3 3 4 2
8 8 8 8 8 8 8 9 8 9 10 9 8 7 7 7 7 7 8 7 8 9 11 11 11 11 11 11 10 10 10 10 8 7 8 6 3 3 3 3 2 3 4
7 7 7 8 8 8 8 9 9 9 9 8 7 5 4 4 5 6 7 8 9 11 12 12 13 13 12 12 11 11 11 11 8 7 7 6 4 3 3 2 2 2 3
6 5 6 7 8 8 9 8 9 8 8 7 5 3 1 2 5 6 8 10 11 11 12 13 13 13 13 12 13 12 11 10 9 7 6 5 3 3 2 2 2 3 4
6 5 6 6 8 8 8 8 8 7 7 5 3 3 2 4 6 8 10 11 12 12 13 14 14 13 13 13 12 11 11 10 8 7 6 4 3 2 2 2 3 3 3
6 5 5 6 7 7 7 7 7 7 5 5 6 6 5 6 8 10 11 12 13 13 13 13 14 14 13 13 13 11 11 10 7 6 4 3 3 2 2 3 4 4 4
5 5 5 5 6 7 7 7 7 6 5 7 8 8 8 10 11 12 12 13 13 14 14 14 14 13 12 11 12 11 10 9 7 5 3 2 1 1 2 2 3 3 3
4 4 4 5 6 6 6 6 6 5 6 8 8 9 11 12 12 13 13 14 14 14 14 14 13 12 10 16 16 12 9 7 6 5 3 1 1 3 5 7 8 7 5
3 3 3 3 4 4 4 5 5 5 7 9 9 10 12 13 13 14 14 14 13 14 14 13 13 12 13 16 15 12 8 6 5 4 2 1 1 4 4 7 9 9 12
2 2 2 2 3 4 5 5 6 7 8 9 9 10 11 13 13 13 13 13 12 12 12 12 11 10 11 13 12 11 7 5 4 2 2 1 2 4 6 6 6 6 7
0 1 1 2 3 4 5 6 7 7 8 9 9 9 10 12 13 13 12 11 11 11 10 10 9 9 8 10 10 9 5 4 2 1 0 1 3 8 11 6 6 7 7
2 3 3 4 5 5 6 7 7 8 8 8 9 9 10 11 12 12 11 10 10 10 10 9 8 7 5 7 8 7 3 2 1 1 1 5 7 10 12 6 5 7 8
4 4 5 5 4 5 7 8 7 7 7 8 9 9 10 10 10 10 10 10 10 10 9 9 7 6 6 6 6 5 2 1 0 1 2 4 10 12 13 11 5 9 11
4 5 6 5 5 5 7 8 7 7 8 9 10 10 9 9 9 10 9 9 9 9 8 7 6 5 4 5 4 5 4 3 0 2 3 5 12 13 13 10 11 14 11
5 5 6 6 5 5 6 8 7 7 9 9 10 9 9 8 8 8 8 7 6 6 5 5 4 3 3 4 5 6 6 7 3 3 8 10 12 12 9 11 13 10 5
6 6 7 7 6 5 6 7 7 8 9 9 8 8 8 8 7 6 5 5 5 5 4 4 3 2 2 2 2 2 3 5 5 4 6 10 10 9 9 9 7 5 5
6 6 7 7 7 6 7 7 7 8 9 9 8 7 7 8 7 6 5 5 3 4 4 3 2 2 1 3 5 4 3 3 3 3 2 3 5 6 6 5 5 5 5
7 7 7 8 7 7 7 6 7 8 9 8 7 6 6 6 6 6 6 9 8 9 8 5 3 1 2 5 7 8 8 9 9 5 3 4 5 6 7 7 8 7 7
Wind_Direction
258 258 249 240 234 229 221 216 213 213 203 199 205 208 214 213 212 211 208 204 200 195 193 188 179 177 181 179 165 142 135 131 140 117 98 45 57 135 158 170 166 170 167
275 265 253 238 226 226 225 223 220 216 208 207 207 207 208 214 214 211 207 205 200 195 194 189 187 185 180 173 172 155 143 141 165 148 139 185 275 240 138 161 174 172 163
274 280 274 257 237 233 229 228 227 223 216 212 206 193 185 185 195 208 213 208 201 197 196 192 187 186 184 185 183 173 158 156 172 184 159 165 212 203 214 165 159 172 168
288 292 297 293 270 254 247 237 235 231 226 215 206 202 208 214 213 213 213 207 200 198 196 191 187 187 187 186 185 178 166 149 159 162 121 117 145 158 188 239 223 213 197
319 319 312 298 293 287 276 259 251 243 235 222 215 214 219 221 216 206 202 202 200 197 193 189 187 188 188 185 179 173 169 162 159 159 152 131 72 93 154 197 223 264 232
4 2 358 358 349 342 332 315 292 271 250 231 224 221 224 221 211 203 204 203 197 195 193 188 189 187 184 180 178 174 173 167 156 153 151 153 156 169 159 171 186 240 278
14 12 9 4 358 352 345 339 325 301 282 253 238 230 229 223 219 213 210 203 198 200 198 190 188 183 177 170 164 163 164 155 149 147 140 132 128 132 135 134 148 211 301
9 6 359 354 349 346 344 338 326 309 295 272 254 243 233 228 227 218 210 206 206 202 189 185 179 168 160 159 153 149 144 138 134 132 126 120 113 112 126 138 141 161 293
357 353 348 348 344 340 336 330 320 309 301 286 269 254 240 230 225 216 206 199 188 170 163 162 157 152 149 147 143 138 133 129 123 123 118 112 107 105 107 121 141 158 221
346 345 344 340 336 332 328 328 321 308 301 295 283 271 249 231 219 198 186 174 160 150 149 149 146 143 140 137 131 128 125 122 118 120 117 111 112 116 118 133 148 161 181
331 333 333 330 327 329 332 332 329 322 316 311 304 286 257 218 192 179 170 158 147 146 148 145 140 138 135 131 126 124 123 117 114 111 115 121 127 129 134 144 160 181 183
323 325 327 328 331 332 333 333 332 328 322 319 317 305 256 164 156 151 144 140 139 138 137 135 133 131 129 126 124 124 121 122 122 116 116 121 127 125 143 171 197 212 209
327 330 335 336 334 333 332 332 333 333 334 345 3 26 71 117 128 128 126 127 127 126 127 128 127 125 122 119 116 117 115 113 113 115 121 129 135 148 186 210 225 234 237
321 330 335 337 336 336 334 336 342 349 2 26 48 59 70 90 102 108 113 117 119 119 119 118 117 117 115 114 113 113 111 108 106 107 118 134 154 179 219 238 243 245 253
322 331 332 332 336 342 344 349 358 4 27 54 61 68 77 85 92 97 101 106 109 111 110 109 108 108 108 112 113 113 113 113 113 112 109 106 101 287 260 270 258 247 251
316 324 335 340 344 349 351 356 8 20 48 67 71 78 85 88 91 95 98 101 103 105 105 106 107 105 108 117 117 117 116 119 124 121 103 73 40 348 344 322 306 293 283
306 321 334 342 352 357 4 13 26 46 65 75 80 85 91 93 93 97 98 99 101 102 101 101 103 104 113 118 117 118 119 121 122 118 107 74 352 1 313 301 302 301 300
313 338 350 8 21 32 41 48 56 64 73 79 84 88 94 97 98 98 99 99 100 100 101 102 104 106 114 117 119 120 113 111 111 121 151 224 305 305 291 268 271 272 278
26 61 66 71 65 64 69 73 70 72 77 81 85 91 99 102 103 102 102 102 102 98 98 100 102 102 105 111 116 117 110 111 118 130 84 314 285 301 312 309 291 290 290
89 89 84 83 78 75 83 84 80 79 80 84 88 91 98 103 104 104 103 101 100 100 99 95 93 95 94 107 111 113 113 108 87 16 311 319 314 311 318 310 296 297 296
101 98 94 88 87 93 96 94 90 86 89 91 92 92 94 97 100 99 99 101 102 100 97 95 85 77 78 82 88 91 105 113 105 309 297 297 319 321 321 322 309 296 306
113 109 102 93 89 98 105 102 96 96 97 96 94 92 92 95 100 101 98 100 105 104 102 99 85 61 49 56 53 43 31 27 111 301 292 300 322 327 327 326 315 316 325
131 121 115 105 95 96 109 110 106 107 105 101 98 95 93 91 95 102 106 103 101 105 105 100 92 70 41 30 37 27 12 1 358 315 324 328 332 333 331 323 325 333 328
143 135 126 120 112 106 107 113 117 116 111 107 103 102 100 95 87 86 92 100 104 105 107 107 104 84 35 358 344 343 342 344 337 328 334 338 338 336 327 327 327 315 299
145 142 137 132 128 122 117 118 122 122 115 110 108 103 98 99 90 82 83 94 92 128 127 124 125 111 19 338 354 355 334 325 311 342 359 344 336 336 330 323 312 305 306
146 141 137 135 133 129 124 124 127 129 125 119 113 108 106 102 100 97 85 83 89 91 94 102 101 63 15 359 357 351 348 344 345 1 346 329 325 323 322 321 319 315 310
Height
1472 1474 1476 1478 1480 1482 1484 1486 1488 1490 1492 1494 1496 1497 1499 1502 1504 1507 1509 1511 1514 1516 1519 1521 1524 1526 1528 1530 1532 1534 1535 1536 1538 1539 1539 1539 1539 1539 1539 1539 1538 1538 1538
1465 1467 1469 1471 1473 1475 1477 1479 1481 1484 1485 1487 1489 1491 1494 1496 1498 1501 1503 1506 1508 1510 1513 1515 1517 1520 1522 1525 1527 1528 1530 1532 1533 1535 1535 1536 1536 1534 1535 1534 1534 1534 1534
1460 1461 1463 1465 1467 1469 1471 1473 1475 1477 1479 1481 1484 1485 1487 1488 1491 1493 1496 1498 1501 1504 1506 1509 1511 1514 1516 1518 1520 1523 1525 1526 1528 1530 1531 1531 1530 1530 1530 1530 1530 1530 1530
1457 1458 1459 1460 1461 1463 1465 1467 1469 1471 1473 1475 1476 1477 1478 1479 1482 1485 1488 1491 1494 1497 1499 1502 1504 1507 1509 1511 1514 1516 1518 1521 1522 1524 1525 1526 1526 1527 1526 1526 1526 1526 1525
1454 1455 1456 1457 1458 1459 1460 1462 1463 1465 1466 1468 1469 1470 1471 1473 1475 1478 1480 1483 1486 1489 1491 1494 1497 1499 1502 1504 1507 1509 1512 1514 1516 1518 1519 1520 1521 1521 1521 1521 1521 1521 1521
1453 1454 1454 1454 1455 1455 1456 1457 1458 1459 1460 1461 1462 1462 1463 1465 1467 1469 1472 1474 1477 1480 1483 1486 1489 1492 1494 1497 1500 1503 1505 1508 1510 1512 1513 1514 1515 1515 1516 1516 1516 1516 1517
1453 1453 1452 1452 1452 1452 1452 1453 1453 1454 1454 1455 1455 1456 1456 1458 1459 1461 1463 1466 1468 1471 1474 1477 1480 1483 1487 1490 1493 1496 1498 1501 1503 1505 1506 1508 1509 1510 1511 1511 1511 1511 1510
1453 1453 1452 1451 1450 1449 1449 1448 1448 1448 1448 1448 1448 1448 1449 1450 1451 1453 1455 1457 1460 1463 1467 1470 1473 1476 1479 1483 1486 1489 1492 1494 1497 1498 1500 1502 1503 1504 1505 1506 1506 1505 1504
1453 1452 1450 1449 1448 1447 1445 1444 1442 1442 1441 1441 1440 1440 1441 1441 1443 1445 1447 1450 1453 1456 1459 1462 1465 1469 1473 1476 1479 1482 1485 1488 1490 1492 1494 1496 1498 1498 1499 1500 1501 1501 1499
1452 1450 1448 1447 1445 1444 1442 1440 1438 1436 1435 1434 1433 1432 1432 1434 1435 1437 1440 1442 1445 1448 1451 1455 1459 1463 1467 1470 1473 1476 1479 1482 1485 1487 1489 1491 1493 1494 1494 1495 1496 1495 1494
1450 1448 1446 1445 1443 1440 1438 1435 1433 1431 1429 1427 1426 1425 1425 1426 1428 1430 1433 1436 1439 1442 1446 1450 1453 1457 1461 1465 1468 1472 1474 1477 1481 1482 1485 1487 1489 1489 1490 1490 1491 1490 1489
1448 1446 1444 1442 1439 1437 1434 1432 1429 1426 1424 1422 1420 1419 1419 1420 1422 1424 1427 1431 1434 1438 1441 1445 1449 1453 1457 1461 1464 1468 1471 1474 1477 1479 1481 1484 1485 1485 1485 1486 1486 1485 1483
1445 1443 1441 1439 1436 1433 1431 1428 1426 1423 1420 1418 1416 1415 1415 1416 1418 1420 1423 1427 1430 1434 1438 1442 1446 1450 1454 1458 1462 1466 1469 1472 1474 1476 1479 1481 1481 1481 1482 1481 1481 1479 1477
1443 1441 1438 1436 1434 1431 1429 1426 1423 1420 1418 1415 1414 1413 1413 1414 1416 1418 1421 1424 1428 1432 1436 1439 1444 1448 1452 1456 1460 1464 1467 1469 1472 1474 1476 1477 1477 1477 1477 1477 1475 1474 1472
1441 1439 1436 1434 1432 1429 1427 1424 1422 1419 1417 1415 1414 1413 1413 1414 1416 1418 1421 1424 1427 1431 1435 1439 1443 1447 1452 1456 1459 1463 1465 1468 1470 1471 1472 1473 1473 1473 1472 1471 1470 1468 1466
1439 1437 1435 1433 1430 1428 1425 1423 1421 1419 1417 1416 1415 1415 1415 1415 1417 1419 1422 1425 1428 1431 1435 1440 1444 1448 1452 1456 1459 1462 1464 1466 1468 1469 1470 1470 1469 1468 1467 1467 1465 1464 1461
1437 1435 1433 1431 1430 1428 1425 1423 1421 1420 1418 1417 1417 1417 1417 1418 1419 1422 1424 1427 1430 1433 1437 1441 1446 1449 1453 1456 1459 1461 1463 1465 1466 1466 1466 1466 1465 1464 1463 1461 1460 1458 1456
1435 1433 1432 1430 1429 1428 1426 1424 1423 1421 1420 1420 1419 1420 1420 1421 1423 1425 1428 1430 1434 1437 1440 1444 1448 1451 1454 1457 1459 1460 1462 1463 1464 1463 1463 1462 1461 1459 1458 1455 1453 1452 1450
1433 1432 1431 1430 1429 1428 1427 1426 1425 1424 1423 1423 1423 1423 1424 1425 1426 1429 1432 1435 1437 1440 1444 1447 1450 1453 1455 1457 1459 1460 1461 1461 1461 1460 1459 1458 1457 1455 1453 1451 1448 1446 1444
1432 1431 1430 1430 1429 1429 1428 1427 1427 1426 1426 1426 1427 1428 1429 1430 1431 1434 1436 1439 1441 1444 1447 1449 1452 1454 1456 1457 1458 1459 1459 1459 1458 1457 1456 1454 1452 1450 1448 1446 1443 1440 1438
1431 1430 1430 1430 1430 1430 1429 1429 1429 1429 1429 1430 1431 1432 1433 1434 1436 1438 1440 1443 1445 1447 1449 1451 1453 1455 1456 1457 1458 1457 1457 1456 1455 1454 1452 1450 1448 1446 1444 1442 1439 1436 1434
1430 1430 1430 1430 1430 1431 1431 1431 1431 1432 1433 1434 1434 1436 1437 1439 1441 1442 1444 1446 1448 1450 1451 1453 1454 1455 1456 1456 1456 1455 1454 1453 1452 1450 1448 1446 1444 1442 1440 1437 1435 1432 1429
1429 1430 1430 1431 1431 1432 1433 1434 1434 1435 1436 1437 1438 1440 1441 1443 1445 1446 1448 1449 1451 1452 1453 1454 1455 1455 1455 1455 1454 1453 1452 1450 1449 1447 1445 1443 1441 1438 1436 1434 1431 1428 1425
1428 1429 1430 1431 1432 1433 1434 1435 1436 1438 1439 1440 1442 1443 1445 1446 1448 1449 1451 1452 1452 1453 1454 1454 1454 1454 1454 1453 1452 1451 1450 1448 1446 1444 1442 1440 1437 1435 1433 1430 1428 1425 1422
1428 1429 1430 1431 1433 1434 1436 1437 1439 1440 1442 1443 1445 1446 1448 1449 1450 1452 1453 1453 1454 1454 1455 1454 1454 1454 1453 1452 1451 1449 1447 1445 1443 1441 1439 1436 1434 1432 1430 1427 1425 1422 1419
1427 1428 1430 1432 1434 1435 1437 1439 1441 1443 1444 1446 1447 1449 1450 1451 1452 1453 1453 1454 1454 1454 1454 1454 1453 1452 1452 1450 1448 1447 1445 1442 1440 1438 1436 1433 1431 1428 1426 1423 1421 1418 1415